Observations for Trim Patrick St
| Time | AQI | Temp °C | Hum % | Pres Pa | CO μg/m³ | H₂S μg/m³ | NO μg/m³ | NO₂ μg/m³ | O₃ μg/m³ | SO₂ μg/m³ | PM1 μg/m³ | PM2.5 μg/m³ | PM10 μg/m³ |
|---|---|---|---|---|---|---|---|---|---|---|---|---|---|
| Tuesday 4 August 2026 | |||||||||||||
| 02:21 | 2 | 16.5 | 87 | 38,460 | 0.17 | 0.9 | 1.17 | 26.63 | 36.11 | 0 | 8.86 | 13.02 | 14.33 |
| 02:20 | 2 | 16.5 | 86 | 38,460 | 0.16 | 1.71 | 1.13 | 28.68 | 44.22 | 0 | 10.57 | 13.04 | 14.35 |
| 02:19 | 2 | 16.5 | 87 | 38,460 | 0.15 | 0.77 | 1.01 | 30.99 | 43.1 | 0 | 8.86 | 13.7 | 15.07 |
| 02:18 | 2 | 16.5 | 87 | 38,460 | 0.15 | 0.45 | 1.06 | 26.15 | 34.89 | 0 | 10.57 | 14.39 | 15.83 |
| 02:17 | 2 | 16.5 | 86 | 38,460 | 0.15 | 1.76 | 1.16 | 31.72 | 52.28 | 0 | 10.57 | 13.03 | 14.34 |
| 02:16 | 2 | 16.5 | 87 | 38,460 | 0.15 | 2.26 | 1.02 | 29.72 | 45.49 | 0 | 9.71 | 12.34 | 13.57 |
| 02:15 | 2 | 16.5 | 87 | 38,460 | 0.16 | 2.02 | 1.11 | 32.6 | 47.5 | 0 | 11.43 | 15.07 | 16.58 |
| 02:14 | 2 | 16.5 | 87 | 38,460 | 0.16 | 1.05 | 1.27 | 31.26 | 45.56 | 0 | 9.71 | 13.7 | 15.07 |
| 02:13 | 2 | 16.5 | 87 | 38,460 | 0.16 | 1.81 | 1.18 | 32.06 | 46.23 | 0 | 9.71 | 13.02 | 14.32 |
| 02:12 | 2 | 16.5 | 87 | 38,460 | 0.15 | 1.11 | 1.02 | 29.24 | 43.16 | 0 | 8.86 | 12.34 | 13.57 |
| 02:11 | 2 | 16.5 | 87 | 38,460 | 0.15 | 0.04 | 1.14 | 23.61 | 31.14 | 0 | 10.57 | 13.71 | 15.08 |
| 02:10 | 2 | 16.5 | 86 | 38,460 | 0.15 | 2.91 | 1.27 | 28.89 | 43.76 | 0 | 11.43 | 16.49 | 18.13 |
| 02:09 | 2 | 16.5 | 86 | 38,460 | 0.16 | 2.46 | 1 | 33.95 | 61.29 | 0 | 9.71 | 13.03 | 14.34 |
| 02:08 | 2 | 16.5 | 87 | 38,460 | 0.15 | 2.91 | 1.07 | 27.35 | 30.05 | 0 | 11.43 | 13.71 | 15.08 |
| 02:07 | 2 | 16.5 | 87 | 38,460 | 0.16 | 3.14 | 1.01 | 38.85 | 67.59 | 0 | 10.57 | 13.71 | 15.08 |
| 02:06 | 2 | 16.5 | 86 | 38,460 | 0.15 | 3.12 | 1.09 | 34.76 | 38.74 | 0 | 10.57 | 15.11 | 16.62 |
| 02:05 | 2 | 16.5 | 86 | 38,460 | 0.15 | 2.67 | 0.83 | 32.21 | 44.76 | 0 | 9.71 | 13.74 | 15.11 |
| 02:04 | 2 | 16.5 | 86 | 38,460 | 0.19 | 2.83 | 0.96 | 31.17 | 33.37 | 0 | 10.57 | 14.42 | 15.86 |
| 02:03 | 2 | 16.5 | 86 | 38,460 | 0.15 | 1.63 | 1.01 | 26.51 | 32.43 | 0 | 9.71 | 12.37 | 13.61 |
| 02:02 | 2 | 16.5 | 86 | 38,460 | 0.15 | 2.18 | 1.03 | 28.39 | 29.85 | 0 | 9.71 | 13.06 | 14.37 |